STARLINK-2691 (48647 NORAD) Tracking and Keplerian Element Data

This shows tracking and keplerian element data for the satellite.

Feedback or suggestion? Click here.




ElementValue
Catalog48647
NameSTARLINK-2691
Epoch Orbit2152
Epoch Day287.84229437
Epoch Year2021
RAAN135.0311
Inclination53.0542
Eccentricity0.0001778
Argument of Perigee74.3376
Mean Anonmoly285.7809
Mean Motion15.06390364
Decay Rate-1.8E-07
L11 48647U 21044K 21287.84229437 -.00000018 00000-0 17721-4 0 9991
L22 48647 53.0542 135.0311 0001778 74.3376 285.7809 15.06390364 21523

Live tracking and technical data element details for STARLINK-2691 (NORAD 48647). STARLINK-2691 can be tracked NOW for your location showing map with azimuth and elevation plus other details from your city location.

Track the satellite on the map from your city or location and see movement details for azimuth, elevation, latitude, longitude, range, height, and movement on the map or in text.







IsCatalogInMostPopularTable: catalog: 48647, numindb: 38
Update: records affected: 1



GetName: 48647 STARLINK-2691

Hit Count: updated at: Tue, 19 Oct 2021 08:32:48 GMT